[TLELIST] Archives

 

[list_settings.list_name] Current TLEs

October 5th 2010 PST

HST 1 20580U 90037B 10277.02601399 .00000622 00000-0 34684-4 0 6559 2 20580 028.4697 249.2940 0003358 273.3099 086.7090 15.01052001921125 ISS (ZARYA) 1 25544U 98067A 10277.43308881 .00012378 00000-0 98514-4 0 85 2 25544 051.6457 031.6848 0007443 062.5057 014.2584 15.71632674680654 CXO 1 25867U 99040B 10277.45833333 .00000379 00000-0 10000-3 0 5202 2 25867 067.7103 047.7522 8320234 275.4759 355.7538 00.37810134 6809 ____________________________________________________________________ These 2-Line ...Continue Reading

[list_settings.list_name] Current TLEs

October 4th 2010 PST

HST 1 20580U 90037B 10275.03133920 .00000641 00000-0 36170-4 0 6540 2 20580 028.4701 262.3178 0003539 251.3343 108.6885 15.01050332920826 ISS (ZARYA) 1 25544U 98067A 10276.41507802 .00013251 00000-0 10523-3 0 02 2 25544 051.6465 036.8928 0007349 058.6411 014.5247 15.71609630680491 CXO 1 25867U 99040B 10274.79166667 .00000283 00000-0 10000-3 0 5197 2 25867 067.6947 047.9733 8315005 275.4399 352.6740 00.37804906 6799 ____________________________________________________________________ These 2-Line ...Continue Reading

[list_settings.list_name] Current TLEs

October 2nd 2010 PST

HST 1 20580U 90037B 10275.03133920 .00000641 00000-0 36170-4 0 6540 2 20580 028.4701 262.3178 0003539 251.3343 108.6885 15.01050332920826 ISS (ZARYA) 1 25544U 98067A 10275.39222016 .00014936 00000-0 11809-3 0 9940 2 25544 051.6459 042.1259 0007460 055.1286 347.0928 15.71587835680332 CXO 1 25867U 99040B 10274.79166667 .00000283 00000-0 10000-3 0 5197 2 25867 067.6947 047.9733 8315005 275.4399 352.6740 00.37804906 6799 ____________________________________________________________________ These 2-Line ...Continue Reading

[list_settings.list_name] Current TLEs

October 1st 2010 PST

HST 1 20580U 90037B 10274.03400129 .00000651 00000-0 36933-4 0 6534 2 20580 028.4701 268.8294 0003483 241.7582 118.2669 15.01049456920677 ISS (ZARYA) 1 25544U 98067A 10274.44998737 .00016176 00000-0 12762-3 0 9908 2 25544 051.6452 046.9459 0007274 052.8308 054.9853 15.71563798680187 CXO 1 25867U 99040B 10274.79166667 .00000283 00000-0 10000-3 0 5197 2 25867 067.6947 047.9733 8315005 275.4399 352.6740 00.37804906 6799 ____________________________________________________________________ These 2-Line ...Continue Reading

[list_settings.list_name] Current TLEs

September 30th 2010 PST

HST 1 20580U 90037B 10272.23879036 .00000645 00000-0 36481-4 0 6521 2 20580 028.4704 280.5493 0003568 222.9977 137.0272 15.01047691920404 ISS (ZARYA) 1 25544U 98067A 10273.35785507 .00018130 00000-0 14262-3 0 9815 2 25544 051.6457 052.5354 0007127 049.7197 355.1509 15.71534786680018 CXO 1 25867U 99040B 10269.60934259 .00000000 00000-0 10000-3 0 5198 2 25867 067.6665 048.2631 8305656 275.4678 007.0229 00.37823772 6782 ____________________________________________________________________ These 2-Line ...Continue Reading

[list_settings.list_name] Current TLEs

September 29th 2010 PST

HST 1 20580U 90037B 10272.23879036 .00000645 00000-0 36481-4 0 6521 2 20580 028.4704 280.5493 0003568 222.9977 137.0272 15.01047691920404 ISS (ZARYA) 1 25544U 98067A 10272.20711806 .00018978 00000-0 14928-3 0 9740 2 25544 051.6459 058.4208 0007158 045.2003 325.0784 15.71497524679831 CXO 1 25867U 99040B 10269.60934259 .00000000 00000-0 10000-3 0 5198 2 25867 067.6665 048.2631 8305656 275.4678 007.0229 00.37823772 6782 ____________________________________________________________________ These 2-Line ...Continue Reading

[list_settings.list_name] Current TLEs

September 28th 2010 PST

HST 1 20580U 90037B 10270.51007067 .00000738 00000-0 43567-4 0 6512 2 20580 028.4702 291.8345 0003756 203.9150 156.1347 15.01046423920142 ISS (ZARYA) 1 25544U 98067A 10271.45193815 .00020511 00000-0 16109-3 0 9727 2 25544 051.6461 062.2836 0007228 042.1585 012.9510 15.71473868679714 CXO 1 25867U 99040B 10272.16666667 .00000211 00000-0 10000-3 0 5181 2 25867 067.6900 048.1164 8309414 275.4588 355.2304 00.37799641 6789 ____________________________________________________________________ These 2-Line ...Continue Reading

[list_settings.list_name] Current TLEs

September 27th 2010 PST

HST 1 20580U 90037B 10267.18560063 .00000626 00000-0 35007-4 0 6506 2 20580 028.4709 313.5407 0003561 173.3422 186.7235 15.01042807919646 ISS (ZARYA) 1 25544U 98067A 10270.50703095 .00021855 00000-0 17156-3 0 9678 2 25544 051.6453 067.1172 0007118 040.5117 065.4617 15.71440246679561 CXO 1 25867U 99040B 10269.54166667 .00000222 00000-0 10000-3 0 5175 2 25867 067.6778 048.2541 8308307 275.4777 357.7981 00.37804459 6773 ____________________________________________________________________ These 2-Line ...Continue Reading

[list_settings.list_name] Current TLEs

September 26th 2010 PST

HST 1 20580U 90037B 10267.18560063 .00000626 00000-0 35007-4 0 6506 2 20580 028.4709 313.5407 0003561 173.3422 186.7235 15.01042807919646 ISS (ZARYA) 1 25544U 98067A 10269.21456019 .00022549 00000-0 17726-3 0 9602 2 25544 051.6451 073.7296 0007025 035.4881 313.9618 15.71385048679354 CXO 1 25867U 99040B 10269.54166667 .00000222 00000-0 10000-3 0 5175 2 25867 067.6778 048.2541 8308307 275.4777 357.7981 00.37804459 6773 ____________________________________________________________________ These 2-Line ...Continue Reading

[list_settings.list_name] Current TLEs

September 25th 2010 PST

HST 1 20580U 90037B 10267.18560063 .00000626 00000-0 35007-4 0 6506 2 20580 028.4709 313.5407 0003561 173.3422 186.7235 15.01042807919646 ISS (ZARYA) 1 25544U 98067A 10268.26442130 .00017392 00000-0 13823-3 0 9520 2 25544 051.6449 078.5867 0006905 032.4457 338.5006 15.71323813679211 CXO 1 25867U 99040B 10266.91666667 .00000210 00000-0 10000-3 0 5164 2 25867 067.6598 048.4136 8307791 275.4623 000.4417 00.37808768 6763 ____________________________________________________________________ These 2-Line ...Continue Reading
  • This mailing list is a public mailing list - anyone may join or leave, at any time.
  • This mailing list is announce-only.

International Space Station (ISS) / Hubble Space Telescope (HST) / Chandra X-Ray Observatory Orbital Data via EMAIL

Privacy Policy:

Private list